Location: Unspecified
(0.0000°N, 0.0000°E)
Time: 01:23:40
(UTC+01:00)

N. Korean satellite - Visible Passes

Search period start: 21 January 2018 00:00
Search period end: 31 January 2018 00:00
Orbit: 459 x 515 km, 97.2° (Epoch: 19 January)

Date Brightness Start Highest point End Pass type
(mag) Time Alt. Az. Time Alt. Az. Time Alt. Az.
21 Jan 8.3 19:40:29 10° S 19:43:58 39° W 19:47:23 10° NNW visible
24 Jan 9.8 06:42:14 10° ENE 06:44:42 18° ESE 06:47:12 10° SSE visible
24 Jan 9.9 20:03:56 10° SW 20:06:23 17° WSW 20:08:48 10° WNW visible
25 Jan 8.2 19:39:19 10° S 19:42:48 40° W 19:46:12 10° NNW visible
28 Jan 9.8 06:41:02 10° ENE 06:43:30 18° ESE 06:45:59 10° SE visible
28 Jan 9.9 20:02:43 10° SW 20:05:11 17° WSW 20:07:36 10° WNW visible
29 Jan 8.1 19:38:07 10° S 19:41:35 41° W 19:44:57 10° NNW visible
